Location: Koza?ac?
(36.5500°N, 30.2167°E)
Time: 10:25:47
(UTC+00:00)

Daily predictions for brighter satellites

Satellite Brightness Start Highest point End
(mag) Time Altitude Azimuth Time Altitude Azimuth Time Altitude Azimuth
MetOp-A 3.9 17:44:56 10° SSE 17:49:16 57° ENE 17:53:59 10° N
S3M 4.3 17:43:58 10° SSW 17:50:08 72° W 17:56:15 10° N
Cosmos 1025 Rocket 3.0 17:49:30 10° S 17:53:45 78° E 17:58:04 10° N
Cosmos 1953 4.4 17:51:36 10° NNW 17:55:03 29° W 17:58:30 10° SSW
Lacrosse 5 2.0 17:50:19 10° NW 17:55:27 73° NE 18:00:31 10° SE
Resurs 1-3 3.7 17:51:14 10° SSE 17:55:33 64° ENE 17:59:54 10° N
OBJECT-B 2.7 17:55:37 10° SSW 17:58:08 26° W 18:00:42 10° NW
Delta 2 Rocket 2.7 17:57:02 10° W 18:00:30 75° S 18:03:49 10° E
Cosmos 1656 4.5 17:57:15 10° N 18:02:18 36° ENE 18:07:13 11° SE
Cosmos 1452 Rocket 3.6 17:58:07 10° S 18:03:15 57° ESE 18:08:23 10° NNE
NOSS 2-1 (C) 4.4 18:04:45 10° NNW 18:09:45 69° ENE 18:16:32 11° SE
Tiangong 1.9 18:09:07 10° W 18:12:06 38° SSW 18:14:28 14° SE
USA 186 4.0 18:13:27 10° SSW 18:15:54 23° W 18:18:27 10° NW
SJ-6B 4.3 18:14:36 10° SSW 18:18:10 36° W 18:21:49 10° NNW
IGS 5A 4.2 18:15:33 10° S 18:19:35 53° W 18:23:38 10° NNW
X-37B 2.8 18:17:59 10° NW 18:20:01 18° NNE 18:22:03 10° ENE
NOSS 2-1 (D) 4.4 18:15:09 10° NNW 18:20:15 82° ENE 18:26:45 13° SSE
BREEZE-M DEB (TANK) 3.2 18:19:54 10° WNW 18:21:56 33° SW 18:24:21 14° SSE
Cosmos 1697 Rocket 4.0 18:17:58 10° N 18:22:36 25° ENE 18:26:22 13° ESE
Cosmos 1980 Rocket 4.3 18:20:03 10° NNE 18:22:45 13° NE 18:25:26 10° E
H-2A R/B 3.4 18:21:21 10° S 18:24:57 42° W 18:28:36 10° NNW
Cosmos 1455 Rocket 3.8 18:21:45 10° NNW 18:25:57 52° W 18:30:09 10° S
Lacrosse 5 rocket 3.4 18:29:51 10° WNW 18:32:39 19° WSW 18:35:33 10° SSW
COSMOS 2406 3.5 18:29:38 10° S 18:35:04 45° ESE 18:40:31 10° NE
Resurs 01 Rocket 1.6 18:32:43 13° SSE 18:36:39 87° ENE 18:41:07 10° NNW
Cosmos 1833 Rocket 2.7 18:35:26 10° SSW 18:41:02 88° WNW 18:46:41 10° NNE
Cosmos 2184 Rocket 4.3 18:36:14 10° N 18:42:14 50° E 18:46:25 20° SSE
GOES 2 Rocket 4.1 18:38:24 10° SW 18:42:21 30° S 18:44:27 22° SE
Cosmos 1536 Rocket 3.7 18:47:15 10° SSW 18:51:33 73° W 18:55:55 10° N
H-2A R/B 3.4 18:47:40 10° N 18:51:53 42° WNW 18:56:07 10° SW
CARTOSAT-1 3.6 18:52:11 27° SSE 18:54:24 63° ENE 18:58:40 10° N
Cosmos 1703 3.2 18:51:35 15° S 18:54:41 86° W 18:58:32 10° N
Ariane Rocket 3.0 18:51:38 19° SSE 18:55:18 90° NW 19:00:25 10° NNW
USA 245 3.7 18:54:42 31° SE 18:56:09 45° ENE 18:59:27 10° N
Cosmos 1741 Rocket 4.0 18:51:22 10° NNW 18:56:42 73° ENE 18:59:42 26° SSE
Cosmos 1606 Rocket 4.4 18:57:47 10° NNE 19:01:42 32° ENE 19:02:42 29° ESE
Molniya-1 4.2 18:58:57 12° SSW 19:02:19 60° ESE 19:11:21 10° NE
ATLAS 2AS CENTAUR R/B 3.5 18:58:11 10° NW 19:04:36 43° WSW 19:09:29 16° S
ASTRO E2 3.4 19:01:37 10° SW 19:04:55 32° S 19:04:55 32° S
SPOT 3 Rocket 3.5 19:03:41 28° SSE 19:06:27 72° ENE 19:11:39 10° N
Terra 2.9 19:05:11 25° E 19:06:36 29° ENE 19:10:40 10° N
ARIANE 5 R/B 4.2 19:06:43 19° E 19:07:36 20° ENE 19:10:50 10° NNE
SPOT 5 3.1 19:07:44 34° ESE 19:08:59 43° ENE 19:13:05 10° N
CZ-4B R/B 3.7 19:13:47 10° NNW 19:15:58 20° WNW 19:18:09 10° WSW
Cosmos 2082 Rocket 2.1 19:13:54 13° SSW 19:19:02 76° ESE 19:24:45 10° NNE
RESURS DK-1 2.8 19:15:39 10° NNW 19:19:41 55° WSW 19:21:02 36° SSW
Cosmos 1850 Rocket 4.3 19:17:13 10° NNW 19:22:19 60° WSW 19:24:50 29° S
Cosmos 2074 Rocket 4.1 19:16:25 10° N 19:22:38 73° W 19:26:38 23° S
Cosmos 1726 Rocket 3.9 19:19:32 10° N 19:23:41 43° E 19:24:10 42° E
Spot 2 Rocket 3.5 19:23:51 40° SSE 19:25:39 71° ENE 19:30:45 10° N
Nadezhda 1 Rocket 3.9 19:22:07 19° S 19:26:35 83° W 19:32:41 10° N
Cosmos 2360 4.1 19:21:59 10° NNW 19:27:45 87° ENE 19:29:57 40° SSE
Helios 1A Rocket 2.9 19:28:48 58° ESE 19:29:22 67° ENE 19:33:26 10° N
GEOS 3 Rocket 3.8 19:28:10 35° S 19:30:06 58° WSW 19:35:09 10° NW
Cosmos 1932 4.3 19:24:01 10° SSW 19:30:10 77° ESE 19:36:28 10° NNE
Cosmos 1328 3.8 19:29:37 47° SSW 19:30:42 79° W 19:34:42 10° N
TIMED 4.4 19:30:21 56° SSE 19:31:05 69° ESE 19:35:25 10° NNE
ASTEX 1 4.4 19:27:54 10° NNE 19:32:10 29° E 19:32:10 29° E
Cosmos 1295 Rocket 4.4 19:30:31 10° N 19:36:44 87° W 19:39:26 36° S
Cosmos 2084 Rocket 3.3 19:33:11 10° NNW 19:37:07 63° NE 19:37:25 60° E
Lacrosse 5 4.1 19:35:01 10° W 19:37:50 15° WSW 19:39:55 12° SW
Cosmos 1900 4.4 19:33:30 10° NNW 19:38:38 77° WSW 19:39:54 51° S
Delta 2 Rocket 4.1 19:39:00 10° W 19:40:57 31° WSW 19:40:57 31° WSW
ERS-1 Rocket 2.9 19:42:07 51° SSE 19:43:26 89° WSW 19:48:30 10° NNW
ATLAS 5 CENTAUR R/B 4.2 19:45:27 10° NW 19:49:33 17° W 19:51:22 13° SW
Cosmos 1892 3.2 19:51:38 52° NNE 19:51:38 52° NNE 19:54:37 10° NNE
X-37B 2.8 19:53:02 10° WNW 19:54:15 23° NW 19:54:15 23° NW
Cosmos 2154 Rocket 4.5 19:50:51 10° NNW 19:56:52 55° W 19:59:44 30° SSW
SL-8 R/B 3.8 19:56:43 10° WNW 20:01:22 60° SW 20:01:22 60° SW
Cosmos 1892 Rocket 4.1 20:00:53 45° WSW 20:01:44 53° W 20:06:01 10° N
Cosmos 968 Rocket 3.3 20:00:40 10° NNW 20:05:55 85° WSW 20:06:30 71° S
Cosmos 1697 Rocket 3.5 20:01:26 10° NW 20:06:39 40° WSW 20:08:06 34° SW
Cosmos 1980 Rocket 2.1 20:01:47 10° NNW 20:07:30 86° WSW 20:08:21 66° SSE
SL-16 R/B 3.6 20:05:22 10° N 20:10:00 25° ENE 20:11:07 24° ENE
USA 267 3.1 20:03:32 10° NE 20:10:02 65° SE 20:12:16 42° SSW
ATLAS 5 CENTAUR R/B 2.3 20:09:31 37° W 20:10:09 40° NW 20:13:53 10° NNE
Cosmos 1626 Rocket 4.2 20:13:01 45° NE 20:13:01 45° NE 20:16:17 10° NNE
SL-8 Rocket 3.9 20:06:10 10° N 20:12:23 72° E 20:13:23 60° SE
Cosmos 1408 4.0 20:14:47 34° NW 20:14:47 34° NW 20:17:21 10° N
Cosmos 2369 3.8 20:10:04 10° NNW 20:15:44 64° WSW 20:16:35 57° SSW
Cosmos 2058 Rocket 3.2 20:11:55 10° N 20:16:04 74° NW 20:16:04 74° NW
In-Cosmos 22 Rocket 4.1 20:17:20 66° SSW 20:18:08 84° W 20:23:37 10° N
Cosmos 2344 4.4 20:12:44 10° NW 20:22:30 82° WSW 20:28:17 40° SSE
SJ 16-02 3.3 20:23:56 10° NNE 20:26:38 19° NE 20:26:38 19° NE
Cosmos 1825 3.6 20:33:23 36° NNW 20:33:23 36° NNW 20:35:47 10° N
Cosmos 2366 rocket 3.9 20:26:22 10° N 20:32:44 88° E 20:33:35 70° SSE
Cosmos 1867 3.7 20:29:21 10° NW 20:34:38 65° WSW 20:34:38 65° WSW
Cosmos 2218 Rocket 3.9 20:32:41 10° N 20:39:06 83° W 20:39:55 69° SSW
ARIANE 5 R/B 4.0 20:44:14 32° W 20:44:14 32° W 20:47:48 10° NNW
Cosmos 2322 Rocket 3.2 20:39:06 10° N 20:44:14 34° ENE 20:44:40 34° ENE
Terra 3.4 20:44:04 25° W 20:44:16 25° W 20:48:12 10° NW
Meteor 1-27 4.1 20:39:33 10° NNW 20:45:07 77° W 20:45:08 77° W
Cosmos 1959 Rocket 4.4 20:43:14 10° NNW 20:49:19 71° W 20:49:51 67° SW
GP-B 4.2 20:45:15 10° NNW 20:49:01 39° WNW 20:49:01 39° WNW
Cosmos 2278 4.0 20:52:04 10° NNW 20:57:25 55° W 20:57:25 55° W
SL-08 R/B 4.4 20:57:22 10° N 21:03:52 77° E 21:04:04 76° ESE
Cosmos 2333 Rocket 4.1 21:00:35 10° N 21:04:44 20° NE 21:06:07 18° ENE
ADEOS Rocket 3.7 21:06:17 50° ESE 21:07:35 56° ENE 21:15:03 10° N
Gbstr 26 Del rocket 4.4 21:16:35 36° NNW 21:16:35 36° NNW 21:20:32 10° NE
Cosmos 2360 Rocket 3.0 21:13:28 10° N 21:18:47 41° ENE 21:18:47 41° ENE
Cosmos-2242 4.5 21:15:50 10° N 21:18:22 35° NNW 21:18:22 35° NNW
Cosmos 1821 Rocket 4.0 21:20:45 10° N 21:26:44 72° W 21:26:44 72° W
Cosmos 1833 4.4 21:32:29 64° NNE 21:32:29 64° NNE 21:37:11 10° NNE
CENTAUR R/B 3.7 21:35:22 27° ENE 21:35:22 27° ENE 21:39:03 10° NE
Cosmos 44 4.4 21:35:47 38° N 21:35:47 38° N 21:38:43 10° NNE
Cosmos 2237 4.5 21:35:40 10° NNW 21:40:30 64° NW 21:40:30 64° NW
ALOS 2 4.0 21:44:13 35° NNW 21:44:13 35° NNW 21:46:50 10° NNW
Nadezhda 3 Rocket 4.5 21:43:20 49° W 21:43:31 49° W 21:49:28 10° N
COSMOS 2428 4.5 21:46:47 10° N 21:51:15 23° ENE 21:52:40 21° ENE
SL-16 R/B 3.2 21:48:56 10° NW 21:52:57 36° WNW 21:52:57 36° WNW
Cosmos 2219 Rocket 3.3 21:49:27 10° N 21:54:37 35° ENE 21:55:00 34° ENE
SJ 16-02 3.5 22:01:51 10° NW 22:03:35 20° NW 22:03:35 20° NW
Cosmos 2221 4.2 22:13:02 10° N 22:15:26 32° NNW 22:15:26 32° NNW
Cosmos 2285 Rocket 4.1 22:19:00 68° ENE 22:19:00 68° ENE 22:25:00 10° NNE
USA 234 3.4 22:22:03 51° ESE 22:23:40 69° NE 22:30:11 10° NW
Cosmos 2322 Rocket 3.7 22:23:16 10° NW 22:26:28 26° WNW 22:26:28 26° WNW
USA 238 DEB 3.9 22:31:21 51° E 22:31:21 51° E 22:37:07 10° NE
USA 238 4.0 22:31:30 51° E 22:31:30 51° E 22:37:15 10° NE
Meteor 1-26 Rocket 4.4 22:31:06 10° N 22:36:44 72° NE 22:36:44 72° NE
Cosmos 1763 Rocket 4.3 22:41:35 44° NW 22:41:35 44° NW 22:45:59 10° N
Cosmos 1153 Rocket 4.4 22:34:57 10° N 22:41:13 81° ENE 22:41:13 81° ENE
Resurs 1-4 Rocket 3.5 22:43:48 10° NE 22:48:00 28° E 22:48:00 28° E
Cosmos 2333 Rocket 2.9 22:43:45 10° NNW 22:48:05 46° WNW 22:48:05 46° WNW
Cosmos 841 Rocket 3.9 22:53:16 59° NNE 22:53:16 59° NNE 22:57:27 10° NNE
Cosmos 1727 Rocket 4.1 22:58:59 61° W 22:58:59 61° W 23:05:13 10° N
Cosmos 1459 Rocket 4.1 22:53:12 10° N 22:59:12 62° E 22:59:36 61° E
Cosmos 2227 Rocket 3.2 23:00:37 35° E 23:00:37 35° E 23:05:23 10° NE
Cosmos 1000 Rocket 4.3 23:00:48 85° E 23:00:49 85° E 23:06:59 10° N
ISS -0.4 23:00:57 10° NNW 23:01:20 10° NNW 23:01:42 10° NNW
Cosmos 2360 Rocket 4.0 22:58:04 10° NW 23:00:32 20° WNW 23:00:32 20° WNW
CZ-2D R/B 3.1 22:58:46 10° NNE 23:03:21 37° E 23:03:21 37° E
Cosmos 540 Rocket 4.3 23:10:08 41° NW 23:10:08 41° NW 23:14:29 10° N
SL-16 R/B 3.9 23:07:07 20° ESE 23:10:32 33° ENE 23:16:01 10° N
Thor Agena Rocket 3.7 23:06:34 10° NNE 23:11:09 68° NE 23:11:09 68° NE
ADEOS II 3.6 23:10:08 10° NE 23:14:26 25° E 23:14:55 25° ESE
NOSS 3-2 (A) 4.2 23:13:40 35° WNW 23:14:30 37° NW 23:20:10 10° NNE
CENTAUR R/B 3.3 23:22:31 33° WNW 23:23:55 37° NW 23:30:12 10° NNE
Okean 3 Rocket 4.4 23:24:43 47° ENE 23:24:43 47° ENE 23:28:31 10° NNE
Cosmos 2100 Rocket 3.9 23:17:55 10° N 23:24:16 74° W 23:24:35 72° WSW
Cosmos 2123 Rocket 3.8 23:25:28 74° SSE 23:26:06 85° E 23:32:27 10° N
Cosmos 2173 Rocket 3.9 23:20:18 10° N 23:26:40 76° W 23:27:07 72° SW
ATLAS CENTAUR R/B 4.2 23:28:42 11° ESE 23:28:44 11° ESE 23:30:06 10° E
Cosmos 2297 Rocket 2.1 23:29:19 81° WNW 23:29:21 81° WNW 23:35:01 10° NNE
Cosmos 2237 Rocket 2.8 23:24:01 10° NNW 23:29:32 52° ENE 23:31:24 37° ESE
Cosmos 1725 Rocket 4.2 23:23:32 10° N 23:29:41 65° E 23:31:00 52° SE
Cosmos 2219 3.3 23:33:09 60° ESE 23:33:23 60° ESE 23:38:55 10° NNE
COSMOS 2428 3.4 23:30:16 10° NW 23:34:37 42° WNW 23:34:37 42° WNW
MOS 1 Rocket 4.1 23:35:13 46° ESE 23:36:14 54° ENE 23:41:25 10° N
IDEFIX/ARIANE 42P 3.5 23:33:22 10° NNE 23:38:09 36° E 23:38:55 34° ESE
Cosmos 2219 Rocket 3.6 23:33:35 10° NW 23:36:40 25° WNW 23:36:40 25° WNW
Cosmos 2016 Rocket 3.8 23:36:03 10° N 23:42:11 89° W 23:43:07 66° S
Cosmos 1151 Rocket 3.7 23:45:06 10° NNW 23:48:25 47° NW 23:48:25 47° NW
CZ-4 R/B 3.8 23:47:52 10° N 23:52:49 76° WNW 23:52:53 76° W
Cosmos 1937 Rocket 4.4 23:49:04 10° NNW 23:52:46 35° WNW 23:52:46 35° WNW
